Regional Weather Roundup
Issued by NWS

Home | Current Version | Previous Version | Graphics & Text | Print | Product List | Glossary On
Versions: 1 2 3 4 5 6 7 8 9 10 11 12 13 14 15 16 17 18 19 20 21 22 23 24 25 26 27 28 29 30 31 32 33 34 35 36 37 38 39 40 41 42 43 44 45 46 47 48 49 50
000
ASUS43 KOAX 250510
RWRNE

WEATHER ROUNDUP FOR NEBRASKA
NATIONAL WEATHER SERVICE OMAHA NE
1200 AM CDT FRI JUL 25 2014

NOTES: SATELLITE DATA IS BEING USED TO AUGMENT CLOUD COVER ABOVE
       12000 FEET.
       "FAIR" INDICATES FEW OR NO CLOUDS BELOW 12,000 FEET WITH NO
       SIGNIFICANT WEATHER AND/OR OBSTRUCTIONS TO VISIBILITY.

  * THESE STATIONS DO NOT REPORT WEATHER SUCH AS RAIN...SNOW OR FOG.

NEZ001>004-019>022-054>056-250600-
NEBRASKA PANHANDLE

CITY           SKY/WX    TMP DP  RH WIND       PRES   REMARKS
SCOTTSBLUFF    CLEAR     77  55  46 SE8       29.89S
ALLIANCE       CLEAR     68  57  68 S7        29.87F
CHADRON        CLEAR     83  53  35 S18G26    29.75S
KIMBALL        CLEAR     70  55  57 SW13      30.00S
SIDNEY         PTCLDY    73  55  53 SW10      29.96S
$$

NEZ057>060-069>072-079>082-250600-
SOUTHWEST NEBRASKA

CITY           SKY/WX    TMP DP  RH WIND       PRES   REMARKS
NORTH PLATTE   MOCLDY    78  56  46 E3        29.82S
IMPERIAL       PTCLDY    74  57  55 S5        29.87F
LEXINGTON      CLOUDY    85  71  61 S15       29.83S HX  90
MCCOOK         MOCLDY    80  61  52 S7        29.84F
OGALLALA       PTCLDY    69  57  65 W5        29.86S
$$

NEZ005>010-023>029-035>040-094-250600-
NORTH CENTRAL NEBRASKA

CITY           SKY/WX    TMP DP  RH WIND       PRES   REMARKS
VALENTINE      CLEAR     74  60  61 S8        29.76R
AINSWORTH      PTCLDY    68  65  90 S15       29.79R
BROKEN BOW     CLOUDY    76  68  76 SE10      29.86R
O`NEILL        CLOUDY    74  62  66 S20G32    29.76F
ORD            CLOUDY    74  70  87 SE10      29.86F
THEDFORD       PTCLDY    73  62  69 SE5       29.82R
$$

NEZ041-046>049-061>064-073>077-083>087-250600-
SOUTH CENTRAL NEBRASKA

CITY           SKY/WX    TMP DP  RH WIND       PRES   REMARKS
GRAND ISLAND   CLOUDY    78  67  68 SE12      29.88R
AURORA         CLOUDY    77  68  73 SE9       29.88R
HASTINGS       CLOUDY    81  65  58 S13       29.86R
HEBRON         MOCLDY    78  65  62 S17       29.88S
HOLDREGE       LGT RAIN  82  69  65 S17       29.86F
KEARNEY *      CLOUDY    81  70  69 S15       29.86S
YORK           CLOUDY    75  66  73 S10G17    29.88R
$$

NEZ011>018-030>034-042>045-250600-
NORTHEAST NEBRASKA

CITY           SKY/WX    TMP DP  RH WIND       PRES   REMARKS
NORFOLK        LGT RAIN  73  66  78 S22G28    29.91R
ALBION         TSTM      69  65  88 SE10      29.90F
BLAIR          PTCLDY    73  58  59 S21G29    29.86S
COLUMBUS *     CLOUDY    75  61  60 S10G17    29.89R
FREMONT        CLOUDY    76  60  59 SE16      29.86R
TEKAMAH        MOCLDY    75  60  59 S10       29.85S
WAYNE          DRIZZLE   73  64  72 SW20G31   29.90R
$$

NEZ050>053-065>068-078-088>093-250600-
SOUTHEAST NEBRASKA

CITY           SKY/WX    TMP DP  RH WIND       PRES   REMARKS
LINCOLN        MOCLDY    77  61  57 S17       29.87F
OMAHA EPPLEY   PTCLDY    74  59  59 S23G29    29.86F
BEATRICE       PTCLDY    74  63  69 S15G23    29.88F
FALLS CITY     CLEAR     72  61  68 S14       29.90F
NEBRASKA CITY  CLEAR     71  59  65 S20G25    29.89F
PLATTSMOUTH    PTCLDY    72  59  64 S13G24    29.87F
$$

NEZ044-045-051>053-067-250600-
OMAHA AREA

CITY           SKY/WX    TMP DP  RH WIND       PRES   REMARKS
OMAHA EPPLEY   PTCLDY    74  59  59 S23G29    29.86F
BLAIR          PTCLDY    73  58  59 S21G29    29.86S
FREMONT        CLOUDY    76  60  59 SE16      29.86R
MILLARD        PTCLDY    74  61  63 SE12G18   29.87S
OFFUTT AFB     PTCLDY    73  62  67 SE16G22   29.86F
PLATTSMOUTH    PTCLDY    72  59  64 S13G24    29.87F
WAHOO          FAIR      74  60  59 S14       29.86S
$$



USA.gov is the U.S. government's official web portal to all federal, state and local government web resources and services.